Weather History for KVOK - June, 2014

Change the Weather History Date:

Thursday, June 12, 2014

  Actual Average Record
Temperature  
Mean Temperature 62 °F -  
Max Temperature 71 °F 71 °F 86 °F (2007)
Min Temperature 53 °F 58 °F 36 °F (2011)
Degree Days  
Heating Degree Days 3    
Growing Degree Days 12 (Base 50)    
Moisture  
Dew Point 52 °F    
Average Humidity 69    
Maximum Humidity 100    
Minimum Humidity 46    
Precipitation  
Precipitation 0.00 in - - ()
Sea Level Pressure  
Sea Level Pressure 29.80 in    
Wind  
Wind Speed 9 mph (West)    
Max Wind Speed 21 mph    
Max Gust Speed 31 mph    
Visibility 9 miles    
Events      
Averages and records for this station are not official NWS values.
T = Trace of Precipitation, MM = Missing Value Source: NWS Daily Summary

Daily Weather History Graph

Daily Weather History Graph

Search for Another Location

Airport or City:

Trip Planner

Search our weather history database for the weather conditions in past years. The results will help you decide how hot, cold, wet, or windy it might be!

Date:

Astronomy

Jun. 12, 2014 Rise Set
Actual Time 5:17 AM CDT 8:44 PM CDT
Civil Twilight 4:41 AM CDT 9:20 PM CDT
Nautical Twilight 3:54 AM CDT 10:07 PM CDT
Astronomical Twilight 2:54 AM CDT 11:07 PM CDT
Moon 8:13 PM CDT (6/12) 5:01 AM CDT (6/12)
Length of Visible Light 16h 38m
Length of Day
15h 26m
Full, 100% of the Moon is Illuminated
Jun 12
Full
Jun 12
Full
Jun 19
Last Quarter
Jun 27
New
Jul 5
First Quarter

Hourly Weather History & Observations

Time (CDT) Temp. Dew Point Humidity Pressure Visibility Wind Dir Wind Speed Gust Speed Precip Events Conditions
12:58 AM 53.4 °F 53.4 °F 100% 29.77 in 6.0 mi Calm Calm - N/A   Clear
1:58 AM 57.9 °F 57.9 °F 100% 29.77 in 7.0 mi SSE 4.6 mph - N/A   Scattered Clouds
2:58 AM 54.7 °F 54.7 °F 100% 29.76 in 4.0 mi ENE 3.5 mph - N/A   Clear
3:58 AM 56.3 °F 56.3 °F 100% 29.74 in 10.0 mi SSE 6.9 mph - N/A   Partly Cloudy
4:58 AM 57.0 °F 57.0 °F 100% 29.72 in 10.0 mi SSE 3.5 mph - N/A   Scattered Clouds
5:58 AM 60.6 °F 59.4 °F 96% 29.70 in 10.0 mi South 8.1 mph - N/A   Scattered Clouds
6:58 AM 62.2 °F 59.4 °F 90% 29.70 in 10.0 mi South 9.2 mph - N/A   Scattered Clouds
7:58 AM 68.0 °F 60.8 °F 78% 29.72 in 10.0 mi WSW 10.4 mph 17.3 mph N/A   Mostly Cloudy
9:58 AM 68.0 °F 55.4 °F 64% 29.75 in 10.0 mi West 16.1 mph 31.1 mph N/A   Mostly Cloudy
10:58 AM 68.0 °F 55.4 °F 64% 29.78 in 10.0 mi West 16.1 mph 25.3 mph N/A   Mostly Cloudy
11:58 AM 69.8 °F 51.8 °F 53% 29.79 in 10.0 mi WNW 20.7 mph 25.3 mph N/A   Scattered Clouds
12:58 PM 71.6 °F 51.8 °F 50% 29.80 in 10.0 mi West 16.1 mph 28.8 mph N/A   Scattered Clouds
1:58 PM 71.6 °F 50.0 °F 46% 29.79 in 10.0 mi West 19.6 mph 24.2 mph N/A   Scattered Clouds
2:58 PM 69.8 °F 50.0 °F 49% 29.80 in 10.0 mi West 19.6 mph 27.6 mph N/A   Scattered Clouds
3:58 PM 69.8 °F 48.2 °F 46% 29.81 in 10.0 mi West 16.1 mph 24.2 mph N/A   Scattered Clouds
4:58 PM 69.8 °F 48.2 °F 46% 29.82 in 10.0 mi WNW 15.0 mph 20.7 mph N/A   Scattered Clouds
5:58 PM 66.6 °F 47.3 °F 50% 29.83 in 10.0 mi WNW 18.4 mph 24.2 mph N/A   Scattered Clouds
6:58 PM 64.4 °F 46.4 °F 52% 29.86 in 10.0 mi WNW 17.3 mph - N/A   Scattered Clouds
7:58 PM 60.8 °F 46.4 °F 59% 29.87 in 10.0 mi WNW 10.4 mph - N/A   Mostly Cloudy
8:58 PM 59.0 °F 46.4 °F 63% 29.89 in 10.0 mi WNW 18.4 mph 27.6 mph N/A   Mostly Cloudy
9:58 PM 59.0 °F 46.4 °F 63% 29.91 in 10.0 mi West 16.1 mph 24.2 mph N/A   Mostly Cloudy
10:58 PM 59.0 °F 44.6 °F 59% 29.91 in 10.0 mi West 18.4 mph 25.3 mph N/A   Mostly Cloudy
11:58 PM 56.7 °F 45.0 °F 65% 29.92 in 10.0 mi West 12.7 mph 19.6 mph N/A   Scattered Clouds